Location: Palmerston North
(40.3500°S, 175.6170°E)
Time: 10:47:42
(UTC+13:00)

Cosmos 2228 Rocket - Pass Details

Date: 24 January 2019
Orbit: 617 x 653 km, 82.5° (Epoch: 15 February)

Event Time Altitude Azimuth Distance (km) Brightness Sun altitude
Exits shadow 21:12:53 - 28° (NNE) 2,612 5.7 -5.7°
Reaches altitude 10° 21:14:40 10° 38° (NE) 1,990 5.1 -6.0°
Maximum altitude 21:18:13 24° 92° (E) 1,305 4.3 -6.6°
Drops below altitude 10° 21:21:47 10° 145° (SE) 2,018 5.7 -7.2°
Sets 21:24:22 0° 158° (SSE) 2,938 6.7 -7.6°
